Flag for India Weather for the Past 2 Weeks in New Okhla Industrial Development Authority, Uttar Pradesh, India

Now
106 °F

Haze.


Feels Like: 99 °F
Forecast: 75 / 107 °F
Wind: 14 mph from Northwest

Location: New Delhi Palam Airport

Current Time: Apr 29, 2016 at 6:22:44 PM

Latest Report: Apr 29, 2016 at 5:30 PM


Visibility: 2 mi

Pressure: 29.68 "Hg

Humidity: 7%

Dew Point: 30 °F

Location of New Okhla Industrial Development AuthorityLocation

Historic Weather in New Okhla Industrial Development Authority — Graph

°F

New Okhla Industrial Development Authority Temperature Yesterday

Maximum temperature yesterday: 109 °F (at 4:00 PM)
Minimum temperature yesterday: 73 °F (at 5:00 AM)
Average temperature yesterday: 91 °F

High & Low Weather Summary for the Past Weeks

 TemperatureHumidityPressure
High111 °F (Apr 16, 2:30 PM)47% (Apr 21, 6:30 AM)29.83 "Hg (Apr 21, 6:30 AM)
Low72 °F (Apr 24, 4:30 AM)6% (Apr 25, 3:00 PM)29.53 "Hg (Apr 22, 4:30 PM)
Average92 °F20%29.70 "Hg
* Reported Apr 14 4:30 PM — Apr 29 4:30 PM, New Okhla Industrial Development Authority, Weather by CustomWeather, © 2016

Note: Actual official high and low records may vary slightly from our data, if they occured in-between our weather recording intervals... More about our weather records

Advertising

New Okhla Industrial Development Authority Weather History for the Previous 24 Hours

Scroll right to see more
 ConditionsComfort  
Time TempWeatherWind HumidityBarometerVisibility
4:30 PM
Fri, Apr 29
108 °FHaze.12 mph7%29.68 "Hg2 mi
3:30 PM108 °FHaze.12 mph8%29.71 "Hg2 mi
3:00 PM108 °FHaze.9 mph8%29.71 "Hg2 mi
2:30 PM108 °FHaze.10 mph8%29.71 "Hg2 mi
2:00 PM108 °FHaze.9 mph8%29.74 "Hg2 mi
1:30 PM108 °FHaze.8 mph8%29.74 "Hg2 mi
1:00 PM108 °FHaze.10 mph8%29.74 "Hg2 mi
12:30 PM106 °FHaze.9 mph9%29.77 "Hg2 mi
11:30 AM104 °FHaze.6 mph11%29.77 "Hg1 mi
10:00 AM97 °FHaze.7 mph13%29.80 "Hg1 mi
9:30 AM95 °FPassing clouds.7 mph12%29.77 "Hg1 mi
9:00 AM90 °FPassing clouds.7 mph15%29.77 "Hg1 mi
8:30 AM86 °FPassing clouds.7 mph17%29.77 "Hg1 mi
8:00 AM82 °FPassing clouds.7 mph19%29.77 "Hg1 mi
7:00 AM77 °FPassing clouds.6 mph34%29.74 "Hg1 mi
6:30 AM75 °FPassing clouds.3 mph36%29.74 "Hg1 mi
5:30 AM75 °FPassing clouds.3 mph36%29.71 "Hg1 mi
5:00 AM77 °FPassing clouds.No wind34%29.71 "Hg1 mi
4:30 AM77 °FPassing clouds.5 mph36%29.71 "Hg1 mi
4:00 AM77 °FHaze.5 mph36%29.71 "Hg1 mi
3:30 AM77 °FHaze.5 mph36%29.71 "Hg1 mi
3:00 AM81 °FHaze.No wind26%29.71 "Hg1 mi
2:30 AM81 °FHaze.No wind26%29.71 "Hg1 mi
2:00 AM82 °FHaze.No wind21%29.71 "Hg1 mi
1:30 AM82 °FHaze.No wind25%29.71 "Hg1 mi
1:00 AM82 °FHaze.No wind26%29.71 "Hg1 mi
12:30 AM84 °FHaze.No wind25%29.71 "Hg1 mi
12:00 AM86 °FHaze.No wind22%29.74 "Hg1 mi
11:30 PM
Thu, Apr 28
86 °FHaze.No wind20%29.74 "Hg1 mi
11:00 PM88 °FHaze.No wind17%29.74 "Hg1 mi
10:30 PM88 °FHaze.No wind17%29.74 "Hg1 mi
10:00 PM90 °FHaze.No wind15%29.71 "Hg1 mi
9:30 PM93 °FHaze.No wind13%29.71 "Hg1 mi
9:00 PM95 °FHaze.2 mph11%29.71 "Hg1 mi
8:30 PM97 °FHaze.3 mph11%29.71 "Hg2 mi
8:00 PM97 °FHaze.6 mph11%29.71 "Hg2 mi
7:30 PM99 °FHaze.6 mph10%29.71 "Hg2 mi
6:30 PM102 °FHaze.8 mph9%29.68 "Hg2 mi
6:00 PM104 °FHaze.13 mph9%29.68 "Hg3 mi
Weather by CustomWeather, © 2016

See weather overviewHow to use our weather pages